カタログに戻る

STARLINK-32651

運用中通信VLEO
NORAD 62314·PAYLOAD·🇺🇸 United States

打ち上げ Dec 13, 2024 から Vandenberg Space Force Base

Loading…

次のパス (今後24時間)

TLE

最新Source: CelesTrak SupGP

元期: Sep 15, 2026, 02:36 UTC

1 62314C 24239P   26258.10881944  .00012897  00000+0  38120-3 0  2585
2 62314  53.1606  31.1547 0001277  91.4937 358.3337 15.34372109    18

AllMySatでSTARLINK-32651をリアルタイム追跡

Download on the App Store